Temperature
17 17 17 17 17 17 17 17 17 17 18 18 18 18 17 17 17 17 17 17 17 17 16 16 16 16 16 16 16 16 16 17 16 16 16 16 16 16 16 16 16 16 16
17 17 17 17 17 17 17 17 17 17 17 17 17 17 17 17 17 17 17 17 17 16 16 16 16 16 16 16 16 16 16 16 16 16 16 16 16 16 16 16 16 16 16
16 17 16 16 17 17 17 17 17 17 17 17 17 17 17 17 17 17 17 16 16 16 16 16 16 16 16 16 16 16 16 16 16 15 15 16 16 16 16 15 16 16 15
16 16 16 16 16 16 16 17 17 17 16 17 17 17 17 17 17 17 16 16 16 16 16 16 16 16 16 16 16 16 16 15 15 15 15 15 15 15 15 15 15 15 15
16 16 16 16 16 16 16 16 16 16 16 16 16 16 16 16 16 16 16 16 16 16 16 16 16 16 16 16 16 16 16 15 15 14 14 15 15 15 15 15 15 15 15
16 16 16 16 16 16 16 16 16 16 16 16 16 16 16 16 16 16 16 16 16 16 16 16 16 16 16 16 16 16 16 15 15 14 14 15 15 15 15 15 15 15 15
15 15 16 16 16 16 16 16 16 16 16 16 16 16 16 16 16 16 16 16 16 16 16 16 16 16 16 16 16 16 15 15 15 14 14 14 15 15 15 15 15 15 15
15 15 15 15 15 16 16 16 16 16 16 16 16 16 16 16 16 16 16 16 16 16 16 16 16 16 16 16 16 16 15 15 14 14 14 14 15 15 15 15 15 15 15
15 15 15 15 15 15 15 16 16 16 16 16 16 16 16 16 16 16 16 16 16 16 16 16 15 16 16 15 16 15 15 15 14 14 14 15 15 15 15 15 15 15 15
14 14 15 15 15 15 15 15 15 15 16 16 16 15 15 16 16 16 16 16 16 16 15 15 15 15 15 15 15 15 15 15 14 14 14 14 15 15 15 15 15 15 15
13 14 14 14 14 15 15 15 15 15 15 15 15 15 15 15 15 15 15 15 15 15 15 15 15 15 15 15 15 15 15 15 14 14 14 14 15 15 15 15 15 15 15
13 13 13 14 14 14 14 15 15 15 15 15 15 15 15 15 15 15 15 15 15 15 15 15 15 15 15 15 15 15 15 15 14 14 14 14 15 15 15 15 15 15 15
12 12 13 13 13 13 14 14 14 14 14 15 15 15 15 15 15 15 15 15 15 15 15 15 15 15 15 15 15 15 15 14 14 14 14 14 15 15 15 15 15 15 15
11 12 12 12 12 13 13 13 14 14 14 14 14 14 14 14 15 15 15 15 15 15 15 15 15 14 14 14 14 15 14 14 14 14 14 14 14 15 15 15 15 15 14
11 11 11 12 12 12 12 13 13 13 13 14 14 14 14 14 14 14 14 15 15 15 15 15 14 14 14 14 14 14 14 14 14 14 14 14 14 14 14 14 15 14 14
10 11 11 11 11 12 12 12 12 12 13 13 13 13 14 14 14 14 14 14 14 14 14 14 14 14 14 14 14 14 14 14 14 14 14 14 14 14 14 14 14 14 14
10 10 10 10 11 11 11 11 12 12 12 13 13 13 13 13 14 14 14 14 14 14 14 14 14 14 14 14 14 14 14 14 13 13 14 14 14 14 14 14 14 14 14
9 10 10 10 10 10 11 11 11 11 12 12 12 13 13 13 13 13 13 14 14 14 14 14 14 14 13 13 14 14 14 13 13 13 13 13 14 14 14 14 14 14 14
9 9 9 9 10 10 10 10 10 11 11 11 12 12 12 13 13 13 13 13 13 13 13 13 13 13 13 13 13 13 13 13 13 13 13 13 13 14 14 14 14 13 13
8 8 9 9 9 9 9 10 10 10 10 11 11 12 12 12 12 12 13 13 13 13 13 13 13 13 13 13 13 13 13 13 13 13 13 13 13 13 13 13 13 13 13
8 8 8 8 8 8 9 9 9 10 10 11 11 11 11 12 12 12 12 12 12 12 13 13 12 12 12 12 12 12 13 13 12 13 13 13 13 13 13 13 13 13 13
7 7 7 7 8 8 8 8 8 9 9 10 10 11 11 11 11 11 12 12 12 12 12 12 12 12 12 12 12 11 11 12 12 12 12 12 12 12 12 12 12 12 12
7 7 7 7 7 7 8 8 8 8 9 9 10 10 10 11 11 11 11 11 11 11 11 11 11 12 11 11 11 11 11 11 11 11 11 11 11 12 12 12 12 12 12
6 6 6 6 7 7 7 7 8 8 8 9 9 9 10 10 10 10 10 10 11 11 11 11 11 11 11 11 11 11 11 11 11 10 11 11 11 11 11 11 11 11 11
5 5 6 6 6 6 7 7 7 7 7 8 8 8 9 9 9 10 10 10 10 10 10 10 10 10 10 10 10 10 10 10 10 10 10 10 10 10 10 11 11 10 11
5 5 5 5 6 6 6 6 6 7 7 7 7 8 8 8 9 9 9 10 10 10 10 10 10 10 10 10 10 10 10 10 10 10 10 10 10 10 10 10 10 10 10
Wind_Speed
5 6 7 6 6 6 7 9 10 10 11 11 11 10 10 10 10 10 10 10 10 10 11 11 11 11 11 11 12 13 13 14 15 15 15 14 13 13 12 13 15 14 15
4 7 7 6 5 6 6 6 8 10 11 11 10 11 11 10 10 10 10 9 10 10 11 11 11 11 11 12 12 12 13 13 13 14 14 14 13 13 14 15 15 12 14
6 8 7 5 5 5 5 6 6 8 10 11 11 11 11 11 11 11 10 10 10 10 10 11 11 12 12 11 11 11 11 11 11 12 12 12 12 12 13 14 13 13 13
7 8 6 5 4 4 5 5 5 6 9 10 11 11 11 11 12 12 11 11 10 10 10 11 11 12 11 11 11 10 10 9 8 7 6 11 11 11 12 12 12 12 12
6 7 7 6 3 3 4 4 5 6 7 9 10 11 11 12 12 12 12 12 11 10 10 11 12 12 12 11 10 9 8 6 5 4 7 13 12 10 10 10 10 10 11
5 7 7 6 3 2 2 4 5 5 6 7 9 9 10 11 12 12 12 12 12 11 11 11 12 12 12 11 10 9 7 5 5 4 8 13 12 10 9 9 9 9 9
4 5 5 4 2 1 1 3 5 5 6 6 8 9 9 10 12 13 13 13 12 12 12 12 12 12 12 11 10 8 6 5 6 2 8 12 12 10 8 8 8 8 8
3 4 2 2 1 1 2 3 5 6 6 6 7 9 10 9 11 12 13 14 13 13 13 13 13 12 12 11 10 8 7 6 5 2 9 12 11 9 8 8 7 7 7
4 2 2 1 1 2 3 4 5 6 7 7 7 8 10 10 10 12 14 15 14 14 14 14 14 12 12 11 10 9 7 7 6 2 8 11 11 9 8 7 7 6 6
4 3 2 2 2 3 3 5 6 7 8 8 8 8 9 10 11 11 13 15 15 15 15 15 14 13 12 11 11 10 9 8 8 5 7 11 12 10 8 7 6 6 5
5 4 3 3 3 4 4 6 7 8 10 10 9 9 9 9 10 11 13 15 16 16 15 15 15 14 13 12 11 11 9 9 9 5 8 12 12 10 9 7 7 6 6
5 5 4 4 3 4 5 4 5 7 7 9 8 9 9 10 10 11 13 16 17 16 16 16 15 15 13 10 11 11 9 11 9 5 8 14 12 10 9 8 8 7 6
6 6 5 5 4 3 3 3 3 5 5 7 8 9 9 8 8 8 8 10 13 14 13 13 14 12 12 10 10 11 11 10 7 6 11 15 13 11 10 9 9 8 8
6 6 6 5 5 4 4 3 3 3 3 4 6 8 6 4 4 5 5 8 9 10 9 9 9 10 11 11 11 10 10 8 6 6 11 16 14 13 12 11 10 10 10
6 6 6 6 6 4 4 4 4 3 3 4 5 7 6 4 5 4 5 6 7 8 8 7 7 7 7 8 9 9 7 8 7 6 9 15 15 14 13 12 12 12 11
6 6 6 6 5 4 4 4 4 3 3 4 4 5 7 4 4 5 5 5 6 7 8 8 7 7 6 6 6 6 6 7 7 7 9 13 16 15 14 13 13 12 12
7 6 6 6 5 4 5 5 4 3 3 3 4 6 6 5 4 4 5 6 5 7 7 6 7 5 6 6 7 6 5 6 7 8 10 11 13 15 15 14 13 12 12
6 6 6 7 5 4 4 5 4 3 4 3 4 4 6 6 6 5 5 5 5 6 5 5 6 5 5 5 5 6 5 4 6 7 9 10 11 12 14 15 14 12 12
5 6 6 5 5 4 4 4 4 3 3 3 3 3 4 6 7 5 5 4 5 4 5 5 5 5 5 5 5 5 5 5 5 5 6 8 10 10 11 13 14 14 13
5 5 6 6 5 4 3 3 3 3 3 3 3 3 4 4 6 5 5 5 5 5 5 5 5 5 5 5 5 5 5 5 5 5 6 6 7 9 10 10 11 12 14
6 5 5 5 5 3 2 3 3 3 3 3 3 4 4 4 5 4 5 5 5 5 6 6 4 5 5 4 3 3 4 5 5 5 5 4 5 7 9 9 10 10 10
6 6 5 5 5 4 3 3 3 3 3 4 3 3 4 4 4 5 5 5 5 5 5 6 5 4 4 5 4 4 2 3 5 6 5 5 6 5 5 7 8 9 9
7 6 6 6 6 5 4 2 3 2 3 3 3 3 4 3 4 4 5 5 5 5 5 6 7 6 5 5 5 5 4 4 2 3 5 6 5 4 4 5 7 9 10
8 6 6 6 6 5 4 3 3 3 4 4 3 3 3 3 4 4 4 4 5 5 5 6 5 5 6 5 4 4 3 2 3 2 3 4 5 5 5 5 5 8 10
8 6 6 6 6 5 4 3 3 3 3 2 2 2 3 3 3 3 4 3 4 4 5 5 4 5 5 5 5 3 4 3 3 3 4 4 3 4 5 6 5 5 8
8 7 6 5 5 4 3 2 2 3 2 2 2 3 2 2 2 2 3 3 3 3 4 5 5 5 5 5 4 4 4 4 4 3 4 5 5 4 5 6 5 5 5
Wind_Direction
64 91 101 99 101 112 138 154 159 156 157 155 157 157 153 148 143 137 134 133 132 133 132 129 123 118 112 105 102 98 96 94 94 94 91 89 88 86 84 86 84 81 83
73 92 108 104 107 113 123 145 159 162 163 165 164 166 164 161 156 150 147 145 143 141 139 136 133 128 120 114 110 107 106 106 106 106 99 92 88 86 81 80 86 88 86
68 82 99 108 112 119 126 128 145 162 168 171 171 172 173 170 167 163 161 157 151 149 146 141 135 130 126 122 118 117 118 121 125 127 118 109 98 91 88 88 91 91 89
62 78 77 98 114 125 133 141 144 156 169 175 179 179 180 179 176 172 169 164 158 156 151 144 138 134 132 129 127 126 130 137 148 158 144 119 108 102 98 96 96 92 91
53 71 78 82 98 132 145 149 157 159 169 176 182 185 186 186 184 179 175 170 165 163 158 150 145 143 139 137 136 138 145 162 186 200 117 110 109 110 104 100 98 95 94
45 54 79 82 81 118 154 164 168 171 178 181 182 185 191 192 191 184 177 172 168 166 163 156 153 151 147 145 146 151 161 191 231 238 123 116 116 117 113 108 105 102 99
26 37 75 85 81 119 189 188 184 184 188 191 190 191 192 195 196 189 181 176 171 170 166 161 157 155 154 154 156 164 180 218 247 239 110 117 125 128 125 121 116 111 106
9 19 49 99 105 192 216 210 205 202 198 200 203 202 198 197 197 192 186 180 176 176 172 168 164 163 163 163 166 174 195 235 261 179 115 122 136 140 138 134 130 125 119
351 357 344 312 242 228 225 225 216 214 210 210 212 208 201 198 194 193 189 184 181 180 177 174 171 171 171 172 175 183 206 238 272 237 134 133 146 150 149 149 146 143 139
331 327 323 315 287 264 249 237 225 221 218 217 217 211 204 200 197 193 192 188 185 183 180 178 177 176 177 178 182 191 211 241 260 237 146 147 156 160 162 163 163 163 161
323 319 306 297 289 274 253 244 233 226 219 217 214 211 205 203 201 197 196 191 188 186 185 182 182 182 181 185 189 197 211 238 246 213 153 156 164 171 175 178 182 186 185
313 310 304 294 285 286 270 259 242 236 224 213 209 206 204 207 205 201 195 192 190 187 187 188 187 186 185 187 192 198 214 234 237 199 158 161 171 181 187 191 196 203 205
304 305 307 300 288 274 270 257 244 236 229 222 216 209 207 206 198 193 181 184 188 187 188 191 189 193 195 191 189 199 217 226 224 190 168 170 178 190 198 202 208 214 217
295 296 298 291 284 267 265 257 243 233 224 220 220 214 206 198 190 184 180 178 183 189 188 187 194 200 203 201 194 200 212 219 217 184 176 179 186 196 206 211 215 220 224
291 290 294 287 275 269 256 249 244 233 233 231 224 216 210 197 195 192 186 183 186 188 186 187 196 200 203 206 206 203 207 216 208 194 183 187 192 200 209 217 221 224 228
291 290 286 280 272 266 261 250 241 234 239 240 230 223 212 202 198 192 191 187 189 190 190 191 197 199 202 202 210 207 207 213 210 200 188 195 200 202 209 217 222 225 229
294 292 287 278 269 267 269 263 256 244 234 233 233 225 218 203 197 199 195 190 193 192 196 196 199 198 200 202 210 212 208 209 208 203 196 195 200 206 210 216 222 225 228
297 295 292 290 285 266 263 268 263 255 244 232 233 226 220 211 199 198 201 196 194 191 191 199 195 196 201 200 207 214 210 208 212 206 200 198 196 200 208 213 218 223 228
312 307 299 286 277 267 257 257 259 258 250 246 238 228 221 215 202 191 199 199 193 193 191 201 200 191 200 205 211 213 211 210 215 210 205 202 198 195 198 209 213 221 229
317 313 308 303 290 278 258 249 250 255 249 250 238 236 230 223 210 197 197 198 195 196 193 192 202 196 197 202 214 220 222 219 213 213 210 202 201 202 200 203 210 221 227
331 324 314 305 295 287 267 256 249 252 249 247 237 233 233 228 217 201 205 203 198 200 197 191 198 199 203 196 190 216 243 233 221 211 209 205 205 204 203 205 209 214 222
330 324 323 316 305 293 278 263 253 251 246 240 239 236 232 224 215 208 204 203 204 202 198 196 191 201 203 191 178 176 219 242 235 225 215 208 210 198 201 210 212 215 218
335 332 325 319 314 308 297 282 272 267 260 244 242 237 229 221 216 208 209 211 209 201 202 202 198 197 203 205 188 178 185 213 228 231 221 218 210 207 215 211 213 218 222
334 330 327 319 315 308 299 281 259 250 251 254 251 243 238 225 219 214 218 220 215 206 204 207 203 201 194 202 208 211 210 176 178 224 237 224 218 219 222 227 223 222 223
333 331 325 319 318 310 297 283 270 264 264 276 277 256 245 237 228 213 211 215 218 207 203 200 206 207 202 201 205 206 220 227 208 202 228 227 237 229 229 233 230 219 220
337 333 327 325 322 323 319 316 293 279 278 281 274 260 252 243 239 233 217 208 218 213 202 200 200 203 209 212 213 211 206 202 209 216 227 227 236 235 235 232 229 224 224
Height
1507 1506 1507 1507 1509 1510 1512 1514 1516 1517 1519 1520 1521 1523 1524 1525 1527 1528 1529 1530 1531 1532 1533 1534 1535 1536 1536 1537 1538 1539 1539 1540 1541 1541 1542 1542 1542 1543 1543 1543 1544 1544 1544
1507 1506 1506 1507 1509 1510 1512 1514 1516 1517 1519 1520 1522 1523 1524 1526 1527 1528 1529 1531 1532 1533 1534 1535 1536 1536 1537 1538 1539 1540 1540 1541 1542 1542 1543 1543 1544 1544 1544 1545 1545 1545 1545
1506 1505 1506 1507 1509 1510 1512 1514 1515 1517 1519 1520 1522 1523 1525 1526 1527 1529 1530 1531 1532 1533 1534 1535 1536 1537 1538 1539 1540 1541 1542 1543 1543 1544 1544 1545 1545 1545 1546 1546 1546 1546 1547
1506 1505 1506 1507 1508 1510 1512 1513 1515 1517 1518 1520 1522 1523 1525 1526 1527 1529 1530 1531 1532 1534 1535 1536 1537 1538 1539 1540 1541 1542 1543 1544 1545 1545 1545 1546 1546 1547 1547 1547 1547 1548 1548
1506 1506 1506 1507 1508 1510 1511 1513 1514 1516 1518 1519 1521 1523 1524 1526 1527 1528 1530 1531 1533 1534 1535 1536 1537 1538 1539 1540 1541 1542 1544 1545 1546 1546 1547 1547 1547 1547 1548 1548 1548 1549 1549
1506 1506 1506 1507 1508 1509 1510 1512 1513 1515 1517 1518 1520 1522 1523 1525 1526 1528 1530 1531 1532 1534 1535 1536 1537 1538 1540 1541 1542 1543 1544 1545 1546 1547 1548 1547 1548 1548 1548 1549 1549 1550 1550
1505 1505 1506 1506 1507 1508 1509 1511 1512 1514 1515 1517 1519 1520 1522 1524 1525 1527 1529 1530 1532 1533 1534 1536 1537 1538 1539 1541 1542 1543 1545 1546 1547 1548 1548 1548 1548 1548 1549 1549 1550 1550 1550
1504 1504 1505 1505 1506 1507 1508 1509 1511 1512 1514 1516 1517 1519 1520 1522 1524 1526 1527 1529 1531 1532 1534 1535 1536 1538 1539 1540 1542 1543 1544 1546 1547 1548 1548 1548 1548 1549 1549 1549 1550 1550 1551
1503 1503 1503 1504 1504 1505 1506 1507 1509 1510 1512 1514 1515 1517 1519 1520 1522 1524 1526 1528 1529 1531 1532 1534 1536 1537 1538 1540 1541 1543 1544 1545 1546 1547 1547 1547 1548 1549 1549 1549 1550 1550 1551
1501 1501 1501 1502 1502 1503 1504 1505 1506 1508 1510 1511 1513 1515 1517 1518 1520 1522 1524 1526 1527 1529 1531 1533 1534 1536 1537 1539 1540 1541 1543 1544 1545 1546 1547 1547 1548 1548 1549 1549 1550 1550 1551
1499 1499 1499 1499 1500 1500 1501 1502 1503 1505 1507 1509 1510 1512 1514 1516 1518 1520 1522 1524 1526 1527 1529 1531 1533 1535 1536 1537 1539 1540 1542 1543 1544 1545 1546 1546 1547 1547 1548 1548 1549 1549 1550
1496 1496 1496 1496 1497 1497 1498 1499 1500 1502 1503 1505 1507 1509 1511 1513 1515 1517 1519 1521 1523 1525 1527 1529 1531 1533 1534 1535 1537 1538 1540 1541 1543 1544 1544 1545 1546 1546 1547 1547 1548 1548 1549
1492 1492 1492 1493 1493 1494 1494 1495 1497 1498 1500 1501 1503 1506 1508 1510 1512 1514 1516 1518 1520 1522 1524 1526 1528 1530 1531 1533 1534 1536 1538 1540 1541 1542 1542 1543 1544 1545 1545 1546 1547 1547 1547
1489 1488 1488 1489 1489 1490 1490 1491 1492 1494 1496 1497 1499 1502 1504 1506 1508 1510 1512 1514 1516 1519 1521 1523 1525 1527 1529 1531 1532 1534 1535 1537 1538 1539 1540 1541 1542 1543 1543 1544 1544 1545 1546
1485 1484 1484 1484 1484 1485 1486 1487 1488 1490 1491 1493 1495 1498 1500 1502 1504 1506 1508 1510 1513 1515 1517 1519 1521 1523 1526 1528 1529 1531 1533 1534 1536 1537 1537 1538 1539 1540 1541 1541 1542 1543 1543
1481 1480 1480 1480 1480 1480 1481 1482 1483 1485 1487 1489 1491 1493 1495 1497 1500 1502 1504 1506 1509 1511 1513 1515 1517 1520 1522 1524 1526 1528 1529 1531 1532 1533 1534 1535 1536 1537 1538 1539 1539 1540 1540
1477 1476 1475 1475 1475 1475 1476 1477 1478 1480 1482 1484 1486 1488 1491 1493 1495 1497 1500 1502 1505 1507 1509 1512 1514 1516 1518 1520 1522 1524 1525 1527 1529 1530 1531 1532 1533 1533 1534 1535 1536 1537 1537
1473 1471 1471 1470 1470 1470 1471 1472 1473 1475 1477 1479 1481 1483 1486 1488 1490 1493 1495 1497 1500 1503 1505 1507 1509 1511 1513 1515 1517 1519 1521 1523 1524 1526 1527 1528 1529 1530 1531 1531 1532 1533 1533
1469 1468 1467 1466 1465 1465 1466 1467 1468 1470 1471 1474 1476 1478 1481 1483 1485 1488 1490 1493 1495 1498 1500 1502 1505 1507 1508 1510 1512 1514 1516 1518 1520 1521 1523 1524 1525 1526 1526 1527 1528 1529 1529
1466 1464 1463 1461 1461 1461 1461 1462 1463 1464 1466 1469 1471 1473 1476 1478 1480 1483 1485 1488 1490 1492 1494 1497 1500 1502 1504 1506 1508 1509 1511 1513 1515 1516 1518 1519 1520 1521 1522 1523 1524 1524 1525
1462 1460 1459 1458 1457 1456 1456 1457 1458 1459 1461 1464 1466 1468 1471 1473 1475 1477 1479 1482 1485 1487 1489 1492 1494 1497 1499 1502 1503 1505 1507 1508 1510 1511 1513 1514 1515 1516 1517 1518 1519 1519 1520
1459 1457 1455 1453 1453 1452 1452 1453 1454 1455 1457 1459 1461 1463 1465 1467 1470 1472 1474 1476 1479 1482 1484 1486 1489 1492 1494 1496 1498 1499 1501 1504 1504 1506 1507 1508 1510 1511 1512 1513 1513 1514 1514
1456 1454 1452 1450 1449 1448 1448 1449 1450 1452 1453 1455 1456 1458 1460 1462 1464 1466 1468 1471 1474 1476 1478 1481 1484 1486 1488 1491 1493 1494 1495 1496 1498 1500 1501 1502 1504 1505 1506 1507 1508 1508 1509
1453 1451 1448 1446 1445 1444 1445 1445 1446 1448 1449 1450 1452 1453 1455 1457 1459 1461 1463 1466 1468 1471 1473 1476 1478 1480 1483 1485 1487 1489 1491 1491 1493 1494 1496 1497 1498 1499 1500 1501 1501 1502 1502
1450 1447 1445 1443 1442 1441 1441 1442 1443 1444 1445 1447 1448 1449 1450 1452 1454 1456 1458 1460 1462 1465 1467 1470 1473 1475 1477 1479 1481 1483 1485 1486 1487 1488 1488 1490 1491 1492 1494 1494 1494 1495 1495
1448 1445 1442 1441 1439 1438 1438 1439 1440 1441 1442 1444 1444 1445 1446 1447 1449 1451 1453 1455 1457 1459 1462 1465 1467 1469 1471 1474 1476 1478 1480 1481 1482 1482 1482 1483 1483 1484 1487 1487 1488 1488 1488